| time (UTC) | temp F | wind direction | speed MPH | gust MPH | rain 1hr in | rain 24hr in | rain mn in | humidity % | barometer mb |
| 20260901074004 | 75 | 55 | 0.0 | 0.0 | 0.00 | 0.00 | 0.00 | 92 | 1017.2 |
| 20260901073501 | 75 | 55 | 0.0 | 0.0 | 0.00 | 0.00 | 0.00 | 92 | 1017.3 |
| 20260901073001 | 75 | 55 | 0.0 | 0.0 | 0.00 | 0.00 | 0.00 | 91 | 1017.3 |
| 20260901072456 | 75 | 55 | 0.0 | 0.0 | 0.00 | 0.00 | 0.00 | 91 | 1017.3 |
| 20260901071951 | 75 | 55 | 0.0 | 0.0 | 0.00 | 0.00 | 0.00 | 91 | 1017.1 |
| 20260901071450 | 75 | 55 | 0.0 | 0.0 | 0.00 | 0.00 | 0.00 | 91 | 1017.2 |
| 20260901070949 | 75 | 55 | 0.0 | 0.0 | 0.00 | 0.00 | 0.00 | 91 | 1017.2 |
| 20260901070445 | 75 | 55 | 0.0 | 0.0 | 0.00 | 0.00 | 0.00 | 91 | 1017.2 |
| 20260901065943 | 75 | 55 | 0.0 | 0.0 | 0.00 | 0.00 | 0.00 | 91 | 1017.4 |
| 20260901065440 | 75 | 55 | 0.0 | 0.0 | 0.00 | 0.00 | 0.00 | 91 | 1017.3 |
| 20260901064934 | 75 | 55 | 0.0 | 0.0 | 0.00 | 0.00 | 0.00 | 91 | 1017.3 |
| 20260901064430 | 75 | 55 | 0.0 | 0.0 | 0.00 | 0.00 | 0.00 | 91 | 1017.3 |
| 20260901063922 | 75 | 55 | 0.0 | 0.0 | 0.00 | 0.00 | 0.00 | 91 | 1017.3 |
| 20260901063418 | 75 | 55 | 0.0 | 0.0 | 0.00 | 0.00 | 0.00 | 90 | 1017.2 |
| 20260901062914 | 76 | 55 | 0.0 | 0.0 | 0.00 | 0.00 | 0.00 | 90 | 1017.3 |
| 20260901062409 | 76 | 55 | 0.0 | 0.0 | 0.00 | 0.00 | 0.00 | 89 | 1017.5 |
| 20260901061904 | 76 | 55 | 0.0 | 0.0 | 0.00 | 0.00 | 0.00 | 88 | 1017.4 |
| 20260901061400 | 77 | 55 | 0.0 | 0.0 | 0.00 | 0.00 | 0.00 | 88 | 1017.6 |
| 20260901060855 | 77 | 55 | 0.0 | 0.0 | 0.00 | 0.00 | 0.00 | 88 | 1017.4 |
| 20260901060351 | 77 | 55 | 0.0 | 0.0 | 0.00 | 0.00 | 0.00 | 88 | 1017.2 |
| 20260901055850 | 77 | 55 | 0.0 | 0.0 | 0.00 | 0.00 | 0.00 | 87 | 1017.4 |
| 20260901055347 | 77 | 55 | 0.0 | 0.0 | 0.00 | 0.00 | 0.00 | 87 | 1017.3 |
| 20260901054843 | 77 | 55 | 0.0 | 0.0 | 0.00 | 0.00 | 0.00 | 87 | 1017.5 |
| 20260901054340 | 77 | 55 | 0.0 | 0.0 | 0.00 | 0.00 | 0.00 | 86 | 1017.4 |
| 20260901053836 | 77 | 55 | 0.0 | 0.0 | 0.00 | 0.00 | 0.00 | 86 | 1017.2 |
| 20260901053331 | 77 | 55 | 0.0 | 0.0 | 0.00 | 0.00 | 0.00 | 86 | 1017.3 |
| 20260901052826 | 78 | 55 | 0.0 | 0.0 | 0.00 | 0.00 | 0.00 | 85 | 1017.4 |
| 20260901052322 | 78 | 55 | 0.0 | 0.0 | 0.00 | 0.00 | 0.00 | 85 | 1017.4 |
| 20260901051820 | 78 | 55 | 0.0 | 0.0 | 0.00 | 0.00 | 0.00 | 85 | 1017.4 |
| 20260901051311 | 78 | 55 | 0.0 | 0.0 | 0.00 | 0.00 | 0.00 | 85 | 1017.5 |
| 20260901050805 | 78 | 55 | 0.0 | 0.0 | 0.00 | 0.00 | 0.00 | 85 | 1017.6 |
| 20260901050300 | 78 | 55 | 0.0 | 0.0 | 0.00 | 0.00 | 0.00 | 85 | 1017.5 |
| 20260901045756 | 78 | 53 | 0.0 | 0.0 | 0.00 | 0.00 | 0.00 | 84 | 1017.5 |
| 20260901045250 | 78 | 52 | 0.0 | 0.0 | 0.00 | 0.00 | 0.00 | 84 | 1017.6 |
| 20260901044745 | 78 | 52 | 0.0 | 0.0 | 0.00 | 0.00 | 0.00 | 84 | 1017.5 |
| 20260901044242 | 78 | 52 | 0.0 | 0.0 | 0.00 | 0.00 | 0.00 | 83 | 1017.4 |
| 20260901043738 | 78 | 51 | 0.0 | 0.0 | 0.00 | 0.00 | 0.00 | 84 | 1017.6 |
| 20260901043233 | 78 | 57 | 0.0 | 0.0 | 0.00 | 0.00 | 0.00 | 84 | 1017.5 |
| 20260901042732 | 78 | 54 | 0.0 | 0.0 | 0.00 | 0.00 | 0.00 | 84 | 1017.5 |
| 20260901042232 | 77 | 53 | 0.0 | 0.0 | 0.00 | 0.00 | 0.00 | 86 | 1017.5 |
| 20260901041728 | 77 | 57 | 0.0 | 0.0 | 0.00 | 0.00 | 0.00 | 87 | 1017.5 |
| 20260901041228 | 77 | 57 | 0.0 | 0.0 | 0.00 | 0.00 | 0.00 | 87 | 1017.5 |
| 20260901040723 | 77 | 57 | 0.0 | 0.0 | 0.00 | 0.00 | 0.00 | 86 | 1017.4 |
| 20260901040222 | 77 | 57 | 0.0 | 0.0 | 0.00 | 0.00 | 0.00 | 86 | 1017.6 |
| 20260901035721 | 77 | 57 | 0.0 | 0.0 | 0.00 | 0.00 | 0.00 | 86 | 1017.6 |
| 20260901035220 | 78 | 57 | 0.0 | 0.0 | 0.00 | 0.00 | 0.00 | 85 | 1017.6 |
| 20260901034719 | 78 | 57 | 0.0 | 0.0 | 0.00 | 0.00 | 0.00 | 84 | 1017.5 |
| 20260901034214 | 78 | 57 | 0.0 | 0.0 | 0.00 | 0.00 | 0.00 | 83 | 1017.8 |
| 20260901033714 | 78 | 57 | 0.0 | 0.0 | 0.00 | 0.00 | 0.00 | 82 | 1017.7 |
| 20260901033213 | 79 | 57 | 0.0 | 0.0 | 0.00 | 0.00 | 0.00 | 81 | 1017.7 |
| 20260901032712 | 79 | 57 | 0.0 | 0.0 | 0.00 | 0.00 | 0.00 | 81 | 1017.5 |
| 20260901032213 | 80 | 57 | 0.0 | 0.0 | 0.00 | 0.00 | 0.00 | 80 | 1017.4 |
| 20260901031708 | 80 | 57 | 0.0 | 0.0 | 0.00 | 0.00 | 0.00 | 80 | 1017.4 |
| 20260901031203 | 80 | 57 | 0.0 | 0.0 | 0.00 | 0.00 | 0.00 | 79 | 1017.4 |
| 20260901030659 | 80 | 57 | 0.0 | 0.0 | 0.00 | 0.00 | 0.00 | 78 | 1017.3 |
| 20260901030159 | 80 | 57 | 0.0 | 0.0 | 0.00 | 0.00 | 0.00 | 78 | 1017.3 |
| 20260901025653 | 80 | 50 | 0.0 | 0.0 | 0.00 | 0.00 | 0.00 | 78 | 1017.4 |
| 20260901025148 | 80 | 60 | 0.0 | 0.0 | 0.00 | 0.00 | 0.00 | 78 | 1017.3 |
| 20260901024648 | 80 | 50 | 0.0 | 0.0 | 0.00 | 0.00 | 0.00 | 78 | 1017.3 |
| 20260901024147 | 80 | 50 | 0.0 | 0.0 | 0.00 | 0.00 | 0.00 | 78 | 1017.2 |
| 20260901023646 | 80 | 50 | 0.0 | 0.0 | 0.00 | 0.00 | 0.00 | 78 | 1017.3 |
| 20260901023141 | 80 | 49 | 0.0 | 0.0 | 0.00 | 0.00 | 0.00 | 77 | 1017.1 |
| 20260901022636 | 80 | 49 | 0.0 | 0.0 | 0.00 | 0.00 | 0.00 | 77 | 1017.2 |
| 20260901022131 | 80 | 58 | 0.0 | 0.0 | 0.00 | 0.00 | 0.00 | 77 | 1017.0 |
| 20260901021627 | 80 | 57 | 0.0 | 0.0 | 0.00 | 0.00 | 0.00 | 77 | 1016.8 |
| 20260901021122 | 80 | 58 | 0.0 | 0.0 | 0.00 | 0.00 | 0.00 | 77 | 1016.9 |
| 20260901020618 | 80 | 58 | 0.0 | 0.0 | 0.00 | 0.00 | 0.00 | 77 | 1016.8 |
| 20260901020113 | 80 | 58 | 0.0 | 0.0 | 0.00 | 0.00 | 0.00 | 77 | 1016.6 |
| 20260901015614 | 80 | 58 | 0.0 | 0.0 | 0.00 | 0.00 | 0.00 | 77 | 1016.6 |
| 20260901015113 | 80 | 58 | 0.0 | 0.0 | 0.00 | 0.00 | 0.00 | 76 | 1016.7 |
| 20260901014608 | 80 | 58 | 0.0 | 0.0 | 0.00 | 0.00 | 0.00 | 76 | 1016.6 |
| 20260901014105 | 81 | 58 | 0.0 | 0.0 | 0.00 | 0.00 | 0.00 | 76 | 1016.6 |
| 20260901013600 | 81 | 58 | 0.0 | 0.0 | 0.00 | 0.00 | 0.00 | 75 | 1016.6 |
| 20260901013056 | 81 | 58 | 0.0 | 0.0 | 0.00 | 0.00 | 0.00 | 75 | 1016.1 |
| 20260901012555 | 81 | 58 | 0.0 | 0.0 | 0.00 | 0.00 | 0.00 | 75 | 1016.4 |
| 20260901012051 | 81 | 58 | 0.0 | 0.0 | 0.00 | 0.00 | 0.00 | 74 | 1016.0 |
| 20260901011547 | 81 | 58 | 0.0 | 0.0 | 0.00 | 0.00 | 0.00 | 74 | 1016.3 |
| 20260901011044 | 82 | 58 | 0.0 | 0.0 | 0.00 | 0.00 | 0.00 | 73 | 1015.9 |
| 20260901010540 | 82 | 58 | 0.0 | 0.0 | 0.00 | 0.00 | 0.00 | 72 | 1015.9 |
| 20260901010039 | 82 | 58 | 0.0 | 0.0 | 0.00 | 0.00 | 0.00 | 73 | 1016.1 |
| 20260901005534 | 83 | 58 | 0.0 | 0.0 | 0.00 | 0.00 | 0.00 | 71 | 1015.8 |
| 20260901005030 | 83 | 58 | 0.0 | 0.0 | 0.00 | 0.00 | 0.00 | 70 | 1016.1 |
| 20260901004529 | 84 | 58 | 0.0 | 0.0 | 0.00 | 0.00 | 0.00 | 69 | 1016.0 |
| 20260901004024 | 84 | 58 | 0.0 | 0.0 | 0.00 | 0.00 | 0.00 | 69 | 1016.1 |
| 20260901003519 | 84 | 58 | 0.0 | 0.0 | 0.00 | 0.00 | 0.00 | 67 | 1016.0 |
| 20260901003017 | 85 | 58 | 0.0 | 0.0 | 0.00 | 0.00 | 0.00 | 67 | 1015.9 |
| 20260901002512 | 85 | 58 | 0.0 | 0.0 | 0.00 | 0.00 | 0.00 | 66 | 1015.9 |
| 20260901002007 | 86 | 58 | 0.0 | 0.0 | 0.00 | 0.00 | 0.00 | 65 | 1016.1 |
| 20260901001502 | 86 | 58 | 0.0 | 0.0 | 0.00 | 0.00 | 0.00 | 64 | 1016.3 |
| 20260901000957 | 87 | 57 | 0.0 | 0.0 | 0.00 | 0.00 | 0.00 | 64 | 1016.1 |
| 20260901000458 | 87 | 57 | 0.0 | 0.0 | 0.00 | 0.00 | 0.00 | 62 | 1016.0 |
| 20260831235955 | 88 | 59 | 0.0 | 0.0 | 0.00 | 0.00 | 0.00 | 63 | 1016.0 |
| 20260831235451 | 88 | 58 | 0.0 | 0.0 | 0.00 | 0.00 | 0.00 | 62 | 1016.0 |
| 20260831234946 | 89 | 58 | 0.0 | 0.0 | 0.00 | 0.00 | 0.00 | 60 | 1016.1 |
| 20260831234441 | 89 | 69 | 1.0 | 1.0 | 0.00 | 0.00 | 0.00 | 60 | 1015.8 |
| 20260831233936 | 90 | 69 | 0.0 | 1.0 | 0.00 | 0.00 | 0.00 | 59 | 1015.9 |
| 20260831233431 | 91 | 61 | 0.0 | 0.0 | 0.00 | 0.00 | 0.00 | 56 | 1016.3 |
| 20260831232927 | 91 | 63 | 0.0 | 0.0 | 0.00 | 0.00 | 0.00 | 55 | 1016.1 |
| 20260831232423 | 92 | 70 | 0.0 | 1.0 | 0.00 | 0.00 | 0.00 | 53 | 1016.3 |
| 20260831231918 | 92 | 55 | 0.0 | 1.0 | 0.00 | 0.00 | 0.00 | 53 | 1016.3 |
| 20260831231415 | 93 | 58 | 0.0 | 1.0 | 0.00 | 0.00 | 0.00 | 52 | 1016.3 |
| 20260831230910 | 93 | 100 | 2.0 | 2.0 | 0.00 | 0.00 | 0.00 | 51 | 1016.5 |
| 20260831230405 | 94 | 72 | 0.0 | 1.0 | 0.00 | 0.00 | 0.00 | 52 | 1016.5 |
| 20260831225905 | 95 | 30 | 1.0 | 1.0 | 0.00 | 0.00 | 0.00 | 49 | 1016.4 |
| 20260831225401 | 94 | 55 | 0.0 | 0.0 | 0.00 | 0.00 | 0.00 | 50 | 1016.6 |
| 20260831224855 | 94 | 59 | 0.0 | 0.0 | 0.00 | 0.00 | 0.00 | 50 | 1016.6 |
| 20260831224350 | 95 | 56 | 0.0 | 0.0 | 0.00 | 0.00 | 0.00 | 49 | 1016.5 |
| 20260831223850 | 96 | 66 | 0.0 | 1.0 | 0.00 | 0.00 | 0.00 | 49 | 1016.5 |
| 20260831223346 | 96 | 341 | 2.0 | 2.0 | 0.00 | 0.00 | 0.00 | 46 | 1016.7 |
| 20260831222843 | 96 | 83 | 1.0 | 2.0 | 0.00 | 0.00 | 0.00 | 44 | 1016.8 |
| 20260831222338 | 97 | 294 | 2.0 | 3.0 | 0.00 | 0.00 | 0.00 | 44 | 1016.7 |
| 20260831221833 | 98 | 54 | 0.0 | 0.0 | 0.00 | 0.00 | 0.00 | 45 | 1016.7 |
| 20260831221329 | 98 | 62 | 0.0 | 0.0 | 0.00 | 0.00 | 0.00 | 46 | 1016.9 |
| 20260831220823 | 98 | 331 | 1.0 | 2.0 | 0.00 | 0.00 | 0.00 | 43 | 1016.7 |
| 20260831220318 | 98 | 47 | 1.0 | 1.0 | 0.00 | 0.00 | 0.00 | 42 | 1016.7 |
| 20260831215814 | 99 | 22 | 1.0 | 1.0 | 0.00 | 0.00 | 0.00 | 42 | 1016.7 |
| 20260831215310 | 98 | 227 | 0.0 | 1.0 | 0.00 | 0.00 | 0.00 | 44 | 1016.7 |
| 20260831214806 | 98 | 39 | 1.0 | 1.0 | 0.00 | 0.00 | 0.00 | 41 | 1016.8 |
| 20260831214303 | 98 | 37 | 0.0 | 1.0 | 0.00 | 0.00 | 0.00 | 42 | 1016.8 |
| 20260831213758 | 98 | 62 | 0.0 | 0.0 | 0.00 | 0.00 | 0.00 | 41 | 1017.0 |
| 20260831213255 | 98 | 337 | 0.0 | 1.0 | 0.00 | 0.00 | 0.00 | 42 | 1017.0 |
| 20260831212749 | 98 | 65 | 0.0 | 0.0 | 0.00 | 0.00 | 0.00 | 45 | 1016.8 |
| 20260831212247 | 98 | 69 | 0.0 | 1.0 | 0.00 | 0.00 | 0.00 | 43 | 1017.0 |
| 20260831211744 | 98 | 231 | 1.0 | 2.0 | 0.00 | 0.00 | 0.00 | 42 | 1016.9 |
| 20260831211241 | 98 | 30 | 1.0 | 2.0 | 0.00 | 0.00 | 0.00 | 43 | 1017.0 |
| 20260831210741 | 98 | 62 | 1.0 | 2.0 | 0.00 | 0.00 | 0.00 | 42 | 1017.2 |
| 20260831210237 | 98 | 60 | 0.0 | 0.0 | 0.00 | 0.00 | 0.00 | 45 | 1017.1 |
| 20260831205736 | 98 | 41 | 0.0 | 0.0 | 0.00 | 0.00 | 0.00 | 41 | 1017.1 |
| 20260831205232 | 98 | 50 | 0.0 | 0.0 | 0.00 | 0.00 | 0.00 | 42 | 1017.0 |
| 20260831204726 | 98 | 68 | 0.0 | 1.0 | 0.00 | 0.00 | 0.00 | 43 | 1017.1 |
| 20260831204226 | 98 | 54 | 0.0 | 1.0 | 0.00 | 0.00 | 0.00 | 45 | 1017.0 |
| 20260831203720 | 99 | 46 | 1.0 | 2.0 | 0.00 | 0.00 | 0.00 | 44 | 1016.9 |
| 20260831203220 | 99 | 64 | 1.0 | 1.0 | 0.00 | 0.00 | 0.00 | 49 | 1017.2 |
| 20260831202718 | 97 | 70 | 1.0 | 1.0 | 0.00 | 0.00 | 0.00 | 46 | 1017.3 |
| 20260831202213 | 96 | 25 | 1.0 | 1.0 | 0.00 | 0.00 | 0.00 | 46 | 1017.4 |
| 20260831201713 | 95 | 66 | 1.0 | 1.0 | 0.00 | 0.00 | 0.00 | 47 | 1017.5 |
| 20260831201207 | 94 | 93 | 1.0 | 1.0 | 0.00 | 0.00 | 0.00 | 50 | 1017.5 |
| 20260831200702 | 93 | 356 | 2.0 | 3.0 | 0.00 | 0.00 | 0.00 | 48 | 1017.5 |
| 20260831200156 | 94 | 47 | 1.0 | 1.0 | 0.00 | 0.00 | 0.00 | 47 | 1017.6 |
| 20260831195652 | 95 | 68 | 1.0 | 1.0 | 0.00 | 0.00 | 0.00 | 47 | 1017.6 |
| 20260831195147 | 95 | 355 | 2.0 | 2.0 | 0.00 | 0.00 | 0.00 | 48 | 1017.7 |
| 20260831194642 | 96 | 64 | 0.0 | 1.0 | 0.00 | 0.00 | 0.00 | 47 | 1017.7 |
| 20260831194137 | 97 | 65 | 0.0 | 0.0 | 0.00 | 0.00 | 0.00 | 46 | 1017.7 |
| 20260831193631 | 97 | 54 | 0.0 | 0.0 | 0.00 | 0.00 | 0.00 | 46 | 1017.8 |
| 20260831193127 | 96 | 103 | 1.0 | 2.0 | 0.00 | 0.00 | 0.00 | 51 | 1017.7 |
| 20260831192622 | 96 | 43 | 1.0 | 2.0 | 0.00 | 0.00 | 0.00 | 53 | 1018.0 |
| 20260831192117 | 96 | 354 | 4.0 | 6.0 | 0.00 | 0.00 | 0.00 | 47 | 1018.0 |
| 20260831191608 | 96 | 111 | 1.0 | 1.0 | 0.00 | 0.00 | 0.00 | 46 | 1018.0 |
| 20260831191104 | 96 | 21 | 3.0 | 4.0 | 0.00 | 0.00 | 0.00 | 46 | 1017.9 |
| 20260831190559 | 96 | 62 | 1.0 | 1.0 | 0.00 | 0.00 | 0.00 | 50 | 1018.2 |
| 20260831190057 | 96 | 63 | 2.0 | 3.0 | 0.00 | 0.00 | 0.00 | 48 | 1018.1 |
| 20260831185553 | 96 | 10 | 1.0 | 2.0 | 0.00 | 0.00 | 0.00 | 47 | 1018.3 |
| 20260831185049 | 95 | 21 | 1.0 | 1.0 | 0.00 | 0.00 | 0.00 | 46 | 1018.3 |
| 20260831184548 | 95 | 78 | 1.0 | 1.0 | 0.00 | 0.00 | 0.00 | 47 | 1018.4 |
| 20260831184044 | 95 | 74 | 2.0 | 2.0 | 0.00 | 0.00 | 0.00 | 48 | 1018.4 |
| 20260831183543 | 95 | 223 | 3.0 | 3.0 | 0.00 | 0.00 | 0.00 | 52 | 1018.7 |
| 20260831183042 | 94 | 56 | 0.0 | 0.0 | 0.00 | 0.00 | 0.00 | 49 | 1018.5 |
| 20260831182536 | 94 | 69 | 1.0 | 1.0 | 0.00 | 0.00 | 0.00 | 50 | 1018.7 |
| 20260831182032 | 95 | 226 | 5.0 | 6.0 | 0.00 | 0.00 | 0.00 | 49 | 1018.7 |
| 20260831181532 | 95 | 185 | 3.0 | 3.0 | 0.00 | 0.00 | 0.00 | 49 | 1018.7 |
| 20260831181032 | 94 | 89 | 1.0 | 1.0 | 0.00 | 0.00 | 0.00 | 49 | 1018.7 |
| 20260831180527 | 94 | 290 | 2.0 | 3.0 | 0.00 | 0.00 | 0.00 | 47 | 1018.8 |
| 20260831180022 | 94 | 68 | 1.0 | 1.0 | 0.00 | 0.00 | 0.00 | 50 | 1018.8 |
| 20260831175517 | 94 | 259 | 2.0 | 2.0 | 0.00 | 0.00 | 0.00 | 50 | 1018.9 |
| 20260831175014 | 94 | 45 | 0.0 | 0.0 | 0.00 | 0.00 | 0.00 | 49 | 1019.1 |
| 20260831174509 | 94 | 43 | 2.0 | 4.0 | 0.00 | 0.00 | 0.00 | 48 | 1019.2 |
| 20260831174008 | 94 | 240 | 3.0 | 3.0 | 0.00 | 0.00 | 0.00 | 49 | 1019.2 |
| 20260831173506 | 94 | 102 | 0.0 | 1.0 | 0.00 | 0.00 | 0.00 | 51 | 1019.2 |
| 20260831173003 | 93 | 64 | 0.0 | 0.0 | 0.00 | 0.00 | 0.00 | 55 | 1019.1 |
| 20260831172458 | 93 | 261 | 2.0 | 3.0 | 0.00 | 0.00 | 0.00 | 53 | 1019.0 |
| 20260831171953 | 93 | 345 | 1.0 | 2.0 | 0.00 | 0.00 | 0.00 | 53 | 1019.3 |
| 20260831171448 | 93 | 99 | 1.0 | 1.0 | 0.00 | 0.00 | 0.00 | 52 | 1019.1 |
| 20260831170946 | 92 | 289 | 3.0 | 3.0 | 0.00 | 0.00 | 0.00 | 51 | 1019.3 |
| 20260831170442 | 93 | 299 | 4.0 | 4.0 | 0.00 | 0.00 | 0.00 | 50 | 1019.4 |
| 20260831165938 | 93 | 26 | 2.0 | 3.0 | 0.00 | 0.00 | 0.00 | 52 | 1019.3 |
| 20260831165434 | 93 | 59 | 0.0 | 0.0 | 0.00 | 0.00 | 0.00 | 56 | 1019.5 |
| 20260831164931 | 93 | 265 | 3.0 | 3.0 | 0.00 | 0.00 | 0.00 | 56 | 1019.4 |
| 20260831164427 | 92 | 83 | 1.0 | 2.0 | 0.00 | 0.00 | 0.00 | 54 | 1019.7 |
| 20260831163927 | 92 | 0 | 1.0 | 1.0 | 0.00 | 0.00 | 0.00 | 54 | 1019.8 |
| 20260831163422 | 92 | 82 | 1.0 | 2.0 | 0.00 | 0.00 | 0.00 | 55 | 1019.8 |
| 20260831162921 | 91 | 282 | 4.0 | 6.0 | 0.00 | 0.00 | 0.00 | 56 | 1019.9 |
| 20260831162416 | 91 | 172 | 4.0 | 7.0 | 0.00 | 0.00 | 0.00 | 56 | 1019.6 |
| 20260831161915 | 91 | 197 | 4.0 | 4.0 | 0.00 | 0.00 | 0.00 | 55 | 1019.8 |
| 20260831161412 | 91 | 350 | 5.0 | 7.0 | 0.00 | 0.00 | 0.00 | 58 | 1019.8 |
| 20260831160907 | 91 | 14 | 3.0 | 3.0 | 0.00 | 0.00 | 0.00 | 57 | 1019.8 |
| 20260831160401 | 91 | 195 | 2.0 | 3.0 | 0.00 | 0.00 | 0.00 | 58 | 1019.9 |
| 20260831155857 | 90 | 203 | 3.0 | 3.0 | 0.00 | 0.00 | 0.00 | 58 | 1019.8 |
| 20260831155356 | 90 | 239 | 2.0 | 4.0 | 0.00 | 0.00 | 0.00 | 61 | 1019.8 |
| 20260831154852 | 89 | 319 | 3.0 | 4.0 | 0.00 | 0.00 | 0.00 | 60 | 1019.7 |
| 20260831154348 | 90 | 262 | 4.0 | 4.0 | 0.00 | 0.00 | 0.00 | 58 | 1019.8 |
| 20260831153846 | 90 | 30 | 3.0 | 6.0 | 0.00 | 0.00 | 0.00 | 59 | 1019.8 |
| 20260831153343 | 89 | 288 | 2.0 | 3.0 | 0.00 | 0.00 | 0.00 | 61 | 1019.8 |
| 20260831152838 | 90 | 231 | 3.0 | 3.0 | 0.00 | 0.00 | 0.00 | 61 | 1019.6 |
| 20260831152334 | 89 | 106 | 2.0 | 3.0 | 0.00 | 0.00 | 0.00 | 62 | 1019.9 |
| 20260831151829 | 88 | 101 | 1.0 | 2.0 | 0.00 | 0.00 | 0.00 | 62 | 1019.8 |
| 20260831151328 | 88 | 244 | 3.0 | 3.0 | 0.00 | 0.00 | 0.00 | 62 | 1019.8 |
| 20260831150823 | 88 | 357 | 1.0 | 2.0 | 0.00 | 0.00 | 0.00 | 63 | 1019.8 |
| 20260831150319 | 89 | 334 | 3.0 | 3.0 | 0.00 | 0.00 | 0.00 | 63 | 1019.7 |
| 20260831145818 | 88 | 71 | 1.0 | 2.0 | 0.00 | 0.00 | 0.00 | 64 | 1019.7 |
| 20260831145315 | 88 | 122 | 3.0 | 3.0 | 0.00 | 0.00 | 0.00 | 63 | 1019.6 |
| 20260831144810 | 88 | 270 | 1.0 | 2.0 | 0.00 | 0.00 | 0.00 | 64 | 1019.9 |
| 20260831144306 | 87 | 302 | 2.0 | 3.0 | 0.00 | 0.00 | 0.00 | 65 | 1019.7 |
| 20260831143805 | 87 | 126 | 2.0 | 3.0 | 0.00 | 0.00 | 0.00 | 66 | 1019.7 |
| 20260831143301 | 87 | 66 | 0.0 | 1.0 | 0.00 | 0.00 | 0.00 | 67 | 1019.7 |
| 20260831142756 | 86 | 28 | 0.0 | 1.0 | 0.00 | 0.00 | 0.00 | 67 | 1019.6 |
| 20260831142251 | 86 | 256 | 3.0 | 3.0 | 0.00 | 0.00 | 0.00 | 68 | 1019.8 |
| 20260831141751 | 85 | 37 | 2.0 | 2.0 | 0.00 | 0.00 | 0.00 | 69 | 1019.5 |
| 20260831141251 | 85 | 144 | 3.0 | 3.0 | 0.00 | 0.00 | 0.00 | 69 | 1019.6 |
| 20260831140747 | 85 | 289 | 1.0 | 3.0 | 0.00 | 0.00 | 0.00 | 69 | 1019.4 |
| 20260831140246 | 84 | 138 | 2.0 | 2.0 | 0.00 | 0.00 | 0.00 | 70 | 1019.4 |
| 20260831135743 | 84 | 54 | 0.0 | 0.0 | 0.00 | 0.00 | 0.00 | 72 | 1019.4 |
| 20260831135240 | 83 | 60 | 0.0 | 0.0 | 0.00 | 0.00 | 0.00 | 73 | 1019.5 |
| 20260831134735 | 83 | 14 | 4.0 | 4.0 | 0.00 | 0.00 | 0.00 | 72 | 1019.3 |
| 20260831134232 | 83 | 314 | 2.0 | 2.0 | 0.00 | 0.00 | 0.00 | 72 | 1019.3 |
| 20260831133730 | 83 | 60 | 0.0 | 0.0 | 0.00 | 0.00 | 0.00 | 74 | 1019.2 |
| 20260831133225 | 82 | 45 | 0.0 | 0.0 | 0.00 | 0.00 | 0.00 | 75 | 1019.1 |
| 20260831132720 | 81 | 263 | 3.0 | 3.0 | 0.00 | 0.00 | 0.00 | 77 | 1019.2 |
| 20260831132215 | 80 | 62 | 1.0 | 1.0 | 0.00 | 0.00 | 0.00 | 78 | 1019.3 |
| 20260831131715 | 81 | 240 | 2.0 | 2.0 | 0.00 | 0.00 | 0.00 | 77 | 1019.4 |
| 20260831131212 | 81 | 185 | 1.0 | 2.0 | 0.00 | 0.00 | 0.00 | 78 | 1019.3 |
| 20260831130712 | 80 | 179 | 1.0 | 2.0 | 0.00 | 0.00 | 0.00 | 79 | 1019.1 |
| 20260831130208 | 80 | 61 | 2.0 | 3.0 | 0.00 | 0.00 | 0.00 | 81 | 1019.1 |
| 20260831125706 | 79 | 54 | 0.0 | 1.0 | 0.00 | 0.00 | 0.00 | 82 | 1019.1 |
| 20260831125202 | 79 | 50 | 0.0 | 1.0 | 0.00 | 0.00 | 0.00 | 83 | 1018.8 |
| 20260831124657 | 78 | 199 | 1.0 | 2.0 | 0.00 | 0.00 | 0.00 | 84 | 1018.8 |
| 20260831124153 | 77 | 73 | 0.0 | 0.0 | 0.00 | 0.00 | 0.00 | 85 | 1018.9 |
| 20260831123653 | 77 | 62 | 0.0 | 0.0 | 0.00 | 0.00 | 0.00 | 88 | 1018.8 |
| 20260831123152 | 75 | 62 | 0.0 | 0.0 | 0.00 | 0.00 | 0.00 | 90 | 1018.8 |
| 20260831122651 | 74 | 62 | 0.0 | 0.0 | 0.00 | 0.00 | 0.00 | 95 | 1018.7 |
| 20260831122148 | 73 | 62 | 0.0 | 0.0 | 0.00 | 0.00 | 0.00 | 95 | 1018.4 |
| 20260831121647 | 73 | 63 | 0.0 | 0.0 | 0.00 | 0.00 | 0.00 | 95 | 1018.7 |
| 20260831121143 | 72 | 63 | 0.0 | 0.0 | 0.00 | 0.00 | 0.00 | 95 | 1018.5 |
| 20260831120639 | 72 | 63 | 0.0 | 0.0 | 0.00 | 0.00 | 0.00 | 95 | 1018.5 |
| 20260831120133 | 72 | 63 | 0.0 | 0.0 | 0.00 | 0.00 | 0.00 | 95 | 1018.4 |
| 20260831115629 | 72 | 63 | 0.0 | 0.0 | 0.00 | 0.00 | 0.00 | 95 | 1018.5 |
| 20260831115124 | 72 | 63 | 0.0 | 0.0 | 0.00 | 0.00 | 0.00 | 95 | 1018.4 |
| 20260831114624 | 72 | 63 | 0.0 | 0.0 | 0.00 | 0.00 | 0.00 | 95 | 1018.3 |
| 20260831114119 | 72 | 63 | 0.0 | 0.0 | 0.00 | 0.00 | 0.00 | 95 | 1018.2 |
| 20260831113618 | 72 | 63 | 0.0 | 0.0 | 0.00 | 0.00 | 0.00 | 95 | 1018.2 |
| 20260831113113 | 72 | 63 | 0.0 | 0.0 | 0.00 | 0.00 | 0.00 | 95 | 1018.2 |
| 20260831112612 | 72 | 63 | 0.0 | 0.0 | 0.00 | 0.00 | 0.00 | 95 | 1018.2 |
| 20260831112108 | 72 | 63 | 0.0 | 0.0 | 0.00 | 0.00 | 0.00 | 95 | 1018.4 |
| 20260831111604 | 72 | 63 | 0.0 | 0.0 | 0.00 | 0.00 | 0.00 | 94 | 1018.2 |
| 20260831111059 | 72 | 63 | 0.0 | 0.0 | 0.00 | 0.00 | 0.00 | 94 | 1018.2 |
| 20260831110554 | 72 | 63 | 0.0 | 0.0 | 0.00 | 0.00 | 0.00 | 94 | 1018.1 |
| 20260831110049 | 73 | 63 | 0.0 | 0.0 | 0.00 | 0.00 | 0.00 | 93 | 1018.2 |
| 20260831105549 | 73 | 63 | 0.0 | 0.0 | 0.00 | 0.00 | 0.00 | 93 | 1018.0 |
| 20260831105043 | 73 | 63 | 0.0 | 0.0 | 0.00 | 0.00 | 0.00 | 93 | 1018.3 |
| 20260831104540 | 73 | 63 | 0.0 | 0.0 | 0.00 | 0.00 | 0.00 | 93 | 1017.9 |
| 20260831104036 | 73 | 63 | 0.0 | 0.0 | 0.00 | 0.00 | 0.00 | 93 | 1018.0 |
| 20260831103531 | 73 | 63 | 0.0 | 0.0 | 0.00 | 0.00 | 0.00 | 93 | 1017.9 |
| 20260831103027 | 73 | 63 | 0.0 | 0.0 | 0.00 | 0.00 | 0.00 | 93 | 1017.7 |
| 20260831102526 | 73 | 63 | 0.0 | 0.0 | 0.00 | 0.00 | 0.00 | 93 | 1018.0 |
| 20260831102021 | 73 | 63 | 0.0 | 0.0 | 0.00 | 0.00 | 0.00 | 93 | 1017.7 |
| 20260831101517 | 73 | 63 | 0.0 | 0.0 | 0.00 | 0.00 | 0.00 | 93 | 1017.7 |
| 20260831101013 | 73 | 63 | 0.0 | 0.0 | 0.00 | 0.00 | 0.00 | 93 | 1017.8 |
| 20260831100509 | 73 | 63 | 0.0 | 0.0 | 0.00 | 0.00 | 0.00 | 93 | 1017.8 |
| 20260831100004 | 73 | 63 | 0.0 | 0.0 | 0.00 | 0.00 | 0.00 | 93 | 1017.6 |
| 20260831095503 | 73 | 63 | 0.0 | 0.0 | 0.00 | 0.00 | 0.00 | 93 | 1017.7 |
| 20260831094957 | 73 | 63 | 0.0 | 0.0 | 0.00 | 0.00 | 0.00 | 93 | 1017.6 |
| 20260831094454 | 73 | 63 | 0.0 | 0.0 | 0.00 | 0.00 | 0.00 | 92 | 1017.5 |
| 20260831093949 | 73 | 63 | 0.0 | 0.0 | 0.00 | 0.00 | 0.00 | 92 | 1017.4 |
| 20260831093444 | 73 | 63 | 0.0 | 0.0 | 0.00 | 0.00 | 0.00 | 92 | 1017.4 |
| 20260831092941 | 73 | 63 | 0.0 | 0.0 | 0.00 | 0.00 | 0.00 | 92 | 1017.4 |
| 20260831092436 | 73 | 63 | 0.0 | 0.0 | 0.00 | 0.00 | 0.00 | 92 | 1017.4 |
| 20260831091931 | 73 | 63 | 0.0 | 0.0 | 0.00 | 0.00 | 0.00 | 92 | 1017.4 |
| 20260831091427 | 73 | 63 | 0.0 | 0.0 | 0.00 | 0.00 | 0.00 | 92 | 1017.3 |
| 20260831090922 | 73 | 63 | 0.0 | 0.0 | 0.00 | 0.00 | 0.00 | 92 | 1017.4 |
| 20260831090418 | 74 | 62 | 0.0 | 0.0 | 0.00 | 0.00 | 0.00 | 92 | 1017.2 |
| 20260831085914 | 74 | 62 | 0.0 | 0.0 | 0.00 | 0.00 | 0.00 | 91 | 1017.1 |
| 20260831085408 | 74 | 62 | 0.0 | 0.0 | 0.00 | 0.00 | 0.00 | 91 | 1017.1 |
| 20260831084908 | 74 | 62 | 0.0 | 0.0 | 0.00 | 0.00 | 0.00 | 91 | 1017.1 |
| 20260831084404 | 74 | 62 | 0.0 | 0.0 | 0.00 | 0.00 | 0.00 | 91 | 1016.9 |
| 20260831083900 | 74 | 62 | 0.0 | 0.0 | 0.00 | 0.00 | 0.00 | 91 | 1017.2 |
| 20260831083355 | 74 | 62 | 0.0 | 0.0 | 0.00 | 0.00 | 0.00 | 91 | 1017.2 |
| 20260831082854 | 74 | 62 | 0.0 | 0.0 | 0.00 | 0.00 | 0.00 | 91 | 1017.0 |
| 20260831082349 | 74 | 62 | 0.0 | 0.0 | 0.00 | 0.00 | 0.00 | 90 | 1017.0 |
| 20260831081845 | 74 | 62 | 0.0 | 0.0 | 0.00 | 0.00 | 0.00 | 91 | 1016.9 |
| 20260831081340 | 74 | 62 | 0.0 | 0.0 | 0.00 | 0.00 | 0.00 | 90 | 1017.0 |
| 20260831080836 | 74 | 62 | 0.0 | 0.0 | 0.00 | 0.00 | 0.00 | 90 | 1016.7 |
| 20260831080336 | 74 | 62 | 0.0 | 0.0 | 0.00 | 0.00 | 0.00 | 90 | 1016.8 |
| 20260831075832 | 75 | 62 | 0.0 | 0.0 | 0.00 | 0.00 | 0.00 | 90 | 1016.8 |
| 20260831075326 | 75 | 62 | 0.0 | 0.0 | 0.00 | 0.00 | 0.00 | 90 | 1017.1 |
| 20260831074821 | 75 | 62 | 0.0 | 0.0 | 0.00 | 0.00 | 0.00 | 90 | 1017.2 |
| 20260831074320 | 75 | 62 | 0.0 | 0.0 | 0.00 | 0.00 | 0.00 | 90 | 1017.0 |